ROMMA est une association bénévole à but non lucratif. Votre soutien est indispensable : ADHERER à ROMMA ou FAIRE un DON

Voiron - (38, Isère)

Voironnais (300 m)   Longitude: 05° 35' E   Latitude: 45° 23' N Station partenaire n°109
 

Détail journalier du     <<     >>

Température Precipitation Humidité Pression Vent Dir Rafale Dir. rafale Ensol.
Heure (°C) (mm) (%) (hPa) (km/h) (km/h) (min)
01:00 23.706810192NE5NNO0
02:00 22.906910182NE5NE0
03:00 22.106810192NE5NNE0
04:00 21.306910181NE3NE0
05:00 20.706910191NNE5NE0
06:00 19.907210192NNE5NNE0
07:00 20.1073101905NNE0
08:00 21.906910201NNE5NNE30
09:00 23.906410203S8SSO60
10:00 25.205910204SSO10SSO60
11:00 26.805310204S13SSE60
12:00 27.905510205S13SSE60
13:00 29.105210205SSO15SSE60
14:00 29.305410206S16S30
15:00 30.705210205SSO15S30
16:00 31.305110195SSO11OSO60
17:00 32.105210194S11S60
18:00 33.305110194NE11S0
19:00 32.905110195NE13ENE60
20:00 30.406210204NE13NO0
21:00 28.806510204NO15N30
22:00 28.206510212NNE10N0
23:00 26.507110222N3N0
minuit 25.306910222N6N0

Graphique du 25-06-2019

 

Serveur OMMA